Location: Unspecified
(47.6578°N, 23.5640°E)
Time: 18:13:22
(UTC+03:00)

ISS - Pass Details

Date: 27 December 2017
Orbit: 402 x 408 km, 51.6° (Epoch: 21 July)

Event Time Altitude Azimuth Distance (km) Brightness Sun altitude
Rises 06:41:11 0° 205° (SSW) 2,341 0.0 -14.7°
Reaches altitude 10° 06:43:36 10° 188° (S) 1,488 -0.8 -14.3°
Maximum altitude 06:46:09 20° 139° (SE) 1,020 -1.0 -13.9°
Drops below altitude 10° 06:48:43 10° 89° (E) 1,504 0.2 -13.5°
Sets 06:51:10 0° 72° (ENE) 2,376 1.0 -13.1°
